EW5462 Weather Reports


Display with metric or nautical units.
time (UTC)temp
F
wind
direction
speed
MPH
gust
MPH
rain 1hr
in
rain 24hr
in
rain mn
in
humidity
%
barometer
mb
20260507104917 62 0.0 0.0 0.00 0.00 0.00 38 1011.9
20260507103917 63 0.0 0.0 0.00 0.00 0.00 38 1012.0
20260507102916 63 0.0 0.0 0.00 0.00 0.00 39 1011.9
20260507101917 62 0.0 0.0 0.00 0.00 0.00 41 1012.0
20260507101416 62 0.0 0.0 0.00 0.00 0.00 41 1012.0
20260507100417 62 0.0 0.0 0.00 0.00 0.00 43 1012.1
20260507095417 63 0.0 0.0 0.00 0.00 0.00 43 1012.1
20260507095017 64 0.0 0.0 0.00 0.00 0.00 42 1012.1
20260507094016 65 0.0 0.0 0.00 0.00 0.00 40 1012.2
20260507093017 66 0.0 0.0 0.00 0.00 0.00 40 1012.2
20260507092017 65 0.0 0.0 0.00 0.00 0.00 38 1012.1
20260507091017 64 0.0 0.0 0.00 0.00 0.00 39 1012.2
20260507090917 65 0.0 0.0 0.00 0.00 0.00 38 1012.2
20260507085917 65 0.0 0.0 0.00 0.00 0.00 39 1012.2
20260507084917 66 0.0 0.0 0.00 0.00 0.00 37 1012.2
20260507083916 67 0.0 0.0 0.00 0.00 0.00 36 1012.3
20260507082917 68 0.0 0.0 0.00 0.00 0.00 35 1012.4
20260507081917 68 0.0 0.0 0.00 0.00 0.00 35 1012.4
20260507080916 67 0.0 0.0 0.00 0.00 0.00 36 1012.5
20260507075917 68 0.0 0.0 0.00 0.00 0.00 34 1012.5
20260507074916 68 0.0 0.0 0.00 0.00 0.00 35 1012.3
20260507073917 66 0.0 0.0 0.00 0.00 0.00 36 1012.5
20260507072917 67 0.0 0.0 0.00 0.00 0.00 35 1012.6
20260507071916 68 0.0 0.0 0.00 0.00 0.00 34 1012.7
20260507070917 69 177 2.0 3.0 0.00 0.00 0.00 34 1012.6
20260507065916 69 162 0.0 1.0 0.00 0.00 0.00 34 1012.7
20260507064917 68 150 3.0 4.0 0.00 0.00 0.00 34 1012.7
20260507063916 68 165 0.0 0.0 0.00 0.00 0.00 33 1012.7
20260507062917 68 0.0 0.0 0.00 0.00 0.00 33 1012.8
20260507061917 68 0.0 0.0 0.00 0.00 0.00 32 1012.8
20260507060916 69 154 1.0 3.0 0.00 0.00 0.00 31 1012.7
20260507055917 70 151 1.0 2.0 0.00 0.00 0.00 31 1012.8
20260507054916 70 166 2.0 3.0 0.00 0.00 0.00 31 1012.7
20260507053917 70 194 2.0 3.0 0.00 0.00 0.00 32 1012.7
20260507052917 70 186 4.0 5.0 0.00 0.00 0.00 33 1012.7
20260507051916 70 188 2.0 3.0 0.00 0.00 0.00 34 1012.5
20260507050916 70 195 2.0 3.0 0.00 0.00 0.00 34 1012.4
20260507045917 71 192 1.0 2.0 0.00 0.00 0.00 33 1012.4
20260507044916 72 220 3.0 3.0 0.00 0.00 0.00 32 1012.5
20260507043917 73 211 3.0 3.0 0.00 0.00 0.00 32 1012.5
20260507042916 75 232 4.0 4.0 0.00 0.00 0.00 30 1012.4
20260507041916 75 232 3.0 4.0 0.00 0.00 0.00 30 1012.4
20260507040917 75 237 2.0 4.0 0.00 0.00 0.00 30 1012.4
20260507035917 75 227 2.0 3.0 0.00 0.00 0.00 30 1012.3
20260507035717 75 225 3.0 4.0 0.00 0.00 0.00 30 1012.3
20260507034716 76 224 4.0 5.0 0.00 0.00 0.00 29 1012.1
20260507033717 77 234 4.0 8.0 0.00 0.00 0.00 29 1012.0
20260507032716 77 230 3.0 5.0 0.00 0.00 0.00 28 1011.9
20260507031717 78 230 4.0 6.0 0.00 0.00 0.00 27 1011.8
20260507030717 79 236 5.0 6.0 0.00 0.00 0.00 26 1011.6
20260507025716 79 248 5.0 6.0 0.00 0.00 0.00 25 1011.5
20260507024716 80 231 3.0 5.0 0.00 0.00 0.00 25 1011.4
20260507023716 80 236 4.0 5.0 0.00 0.00 0.00 25 1011.3
20260507022717 81 236 4.0 6.0 0.00 0.00 0.00 25 1011.2
20260507021716 82 240 5.0 6.0 0.00 0.00 0.00 24 1011.2
20260507020717 83 239 5.0 7.0 0.00 0.00 0.00 23 1011.1
20260507015716 84 246 4.0 6.0 0.00 0.00 0.00 23 1011.1
20260507014717 84 225 5.0 6.0 0.00 0.00 0.00 21 1011.0
20260507013717 85 223 6.0 7.0 0.00 0.00 0.00 21 1011.0
20260507012716 85 253 6.0 8.0 0.00 0.00 0.00 21 1010.9
20260507011717 86 226 7.0 8.0 0.00 0.00 0.00 21 1010.9
20260507010716 86 232 6.0 7.0 0.00 0.00 0.00 20 1010.8
20260507005717 86 248 5.0 6.0 0.00 0.00 0.00 20 1010.7
20260507004717 86 223 4.0 6.0 0.00 0.00 0.00 21 1010.7
20260507003716 87 268 6.0 9.0 0.00 0.00 0.00 19 1010.7
20260507002717 86 260 3.0 5.0 0.00 0.00 0.00 19 1010.7
20260507001716 87 260 3.0 4.0 0.00 0.00 0.00 19 1010.7
20260507000717 88 252 6.0 7.0 0.00 0.00 0.00 19 1010.7
20260506235716 88 226 4.0 6.0 0.00 0.00 0.00 19 1010.7
20260506234717 88 211 4.0 5.0 0.00 0.00 0.00 19 1010.8
20260506233717 87 247 5.0 6.0 0.00 0.00 0.00 20 1010.8
20260506232717 88 302 2.0 7.0 0.00 0.00 0.00 19 1010.8
20260506231717 86 205 2.0 3.0 0.00 0.00 0.00 19 1011.0
20260506230717 87 241 2.0 3.0 0.00 0.00 0.00 19 1011.1
20260506225716 85 244 2.0 5.0 0.00 0.00 0.00 19 1011.2
20260506224716 85 303 1.0 3.0 0.00 0.00 0.00 20 1011.4
20260506223717 85 276 2.0 4.0 0.00 0.00 0.00 19 1011.5
20260506222716 86 227 0.0 2.0 0.00 0.00 0.00 19 1011.7
20260506221717 85 342 5.0 6.0 0.00 0.00 0.00 19 1011.9
20260506220716 87 288 5.0 7.0 0.00 0.00 0.00 19 1012.0
20260506215717 84 223 2.0 4.0 0.00 0.00 0.00 21 1012.2
20260506214717 84 338 4.0 6.0 0.00 0.00 0.00 20 1012.4
20260506213716 84 0.0 0.0 0.00 0.00 0.00 20 1012.6
20260506212717 86 177 2.0 4.0 0.00 0.00 0.00 22 1012.7
20260506211717 85 263 0.0 1.0 0.00 0.00 0.00 21 1012.9
20260506210716 83 270 1.0 2.0 0.00 0.00 0.00 19 1013.1
20260506205717 84 288 6.0 7.0 0.00 0.00 0.00 20 1013.1
20260506204716 84 342 5.0 7.0 0.00 0.00 0.00 21 1013.3
20260506203717 84 69 4.0 5.0 0.00 0.00 0.00 21 1013.4
20260506202716 82 199 0.0 0.0 0.00 0.00 0.00 23 1013.6
20260506201717 81 337 3.0 4.0 0.00 0.00 0.00 21 1013.7
20260506200717 83 316 6.0 10.0 0.00 0.00 0.00 22 1013.8
20260506195716 82 342 5.0 7.0 0.00 0.00 0.00 23 1013.9
20260506194717 82 356 7.0 11.0 0.00 0.00 0.00 23 1014.0
20260506193717 80 325 2.0 5.0 0.00 0.00 0.00 26 1014.1
20260506192717 80 249 0.0 1.0 0.00 0.00 0.00 25 1014.3
20260506191716 80 207 1.0 2.0 0.00 0.00 0.00 27 1014.4
20260506190717 80 326 2.0 4.0 0.00 0.00 0.00 27 1014.6
20260506185716 81 150 3.0 4.0 0.00 0.00 0.00 31 1014.6
20260506184717 79 299 2.0 5.0 0.00 0.00 0.00 31 1014.7
20260506183716 78 0.0 0.0 0.00 0.00 0.00 32 1014.8
20260506182717 77 309 2.0 4.0 0.00 0.00 0.00 32 1015.0
20260506181716 78 326 2.0 6.0 0.00 0.00 0.00 32 1015.1
20260506180717 79 202 5.0 6.0 0.00 0.00 0.00 35 1015.2
20260506175717 77 353 5.0 6.0 0.00 0.00 0.00 33 1015.3
20260506174717 77 30 3.0 6.0 0.00 0.00 0.00 34 1015.4
20260506173717 76 0.0 0.0 0.00 0.00 0.00 34 1015.4
20260506172716 75 0.0 0.0 0.00 0.00 0.00 37 1015.4
20260506171717 77 170 1.0 4.0 0.00 0.00 0.00 35 1015.4
20260506170716 76 118 0.0 2.0 0.00 0.00 0.00 37 1015.4
20260506165717 73 312 0.0 1.0 0.00 0.00 0.00 39 1015.4
20260506164716 74 224 2.0 4.0 0.00 0.00 0.00 41 1015.4
20260506163717 74 0.0 0.0 0.00 0.00 0.00 39 1015.3
20260506162717 72 96 0.0 0.0 0.00 0.00 0.00 39 1015.3
20260506161717 72 28 0.0 0.0 0.00 0.00 0.00 40 1015.3
20260506160716 70 0.0 0.0 0.00 0.00 0.00 42 1015.2
20260506155717 70 349 3.0 3.0 0.00 0.00 0.00 40 1015.3
20260506154716 70 357 4.0 5.0 0.00 0.00 0.00 41 1015.3
20260506154017 69 346 3.0 5.0 0.00 0.00 0.00 41 1015.3
20260506153017 69 340 4.0 6.0 0.00 0.00 0.00 41 1015.3
20260506152017 68 316 2.0 4.0 0.00 0.00 0.00 42 1015.3
20260506151017 68 318 6.0 9.0 0.00 0.00 0.00 43 1015.2
20260506150016 67 310 4.0 6.0 0.00 0.00 0.00 42 1015.2
20260506145018 66 295 5.0 7.0 0.00 0.00 0.00 42 1015.1
20260506144017 65 291 8.0 11.0 0.00 0.00 0.00 42 1015.1
20260506143017 64 304 5.0 7.0 0.00 0.00 0.00 46 1015.0
20260506142017 62 260 2.0 4.0 0.00 0.00 0.00 47 1015.0
20260506141017 62 223 1.0 2.0 0.00 0.00 0.00 47 1015.0
20260506140017 60 255 2.0 3.0 0.00 0.00 0.00 49 1015.0
20260506135018 59 0.0 0.0 0.00 0.00 0.00 50 1014.9
20260506134017 58 0.0 0.0 0.00 0.00 0.00 52 1014.9
20260506133017 56 188 0.0 0.0 0.00 0.00 0.00 54 1014.8
20260506132018 56 0.0 0.0 0.00 0.00 0.00 54 1014.7
20260506131018 54 195 1.0 2.0 0.00 0.00 0.00 56 1014.7
20260506130017 54 176 3.0 4.0 0.00 0.00 0.00 57 1014.6
20260506125016 54 170 1.0 2.0 0.00 0.00 0.00 56 1014.4
20260506124017 54 0.0 0.0 0.00 0.00 0.00 55 1014.3
20260506123017 54 176 1.0 2.0 0.00 0.00 0.00 56 1014.2
20260506122019 55 169 0.0 0.0 0.00 0.00 0.00 55 1014.1
20260506121717 55 169 1.0 2.0 0.00 0.00 0.00 55 1014.1
20260506120716 55 0.0 0.0 0.00 0.00 0.00 55 1014.1
20260506115717 55 0.0 0.0 0.00 0.00 0.00 54 1014.1
20260506114916 55 0.0 0.0 0.00 0.00 0.00 54 1014.0
20260506113917 55 0.0 0.0 0.00 0.00 0.00 56 1014.0
20260506112929 56 0.0 0.0 0.00 0.00 0.00 56 1014.0
20260506111917 57 0.0 0.0 0.00 0.00 0.00 53 1013.9
20260506110916 56 0.0 0.0 0.00 0.00 0.00 57 1013.8
20260506105917 57 0.0 0.0 0.00 0.00 0.00 52 1013.7